Starlink 32025

operational
NORAD ID: 60138 Int'l Des: 2024-120 Owner: SPXS Country: US Constellation: starlink
LEOCIRCULAR

关于 Starlink 32025

正在加载描述...

实时位置

正在加载3D地球...

即将过境

高度历史

Altitude vs Time

uPlot chart will show altitude changes over time

两行轨道根数

1 60138U 24120D 26036.51492789 -.00001447 00000-0 -36774-4 0 9998
2 60138 53.1609 109.1174 0001240 100.2616 259.8525 15.30174358 91452
Epoch: Feb 5, 2026 • Age: 6 hours

当前状态

高度 478.7 km
速度 7.63 km/s
星下点 -12.34°S, 107.13°W
发射日期 Jun 27, 2024
运行时间 1.6 years
类型 internet

技术详情

分类 Payload
质量 730.00 kg
干质量 700.00 kg
总质量 730.00 kg
长度 0.30 m
直径 4.10 m
跨度 29.00 m
形状 Box + pan
制造商 SPXS
平台类型 Starlink V2M
阶段状态 In Orbit
所有者/国家 SPXS/US

大型星座

Loading constellations...